Location: Ravensburg
(48.5621°N, 13.4088°E)
Time: 12:18:04
(UTC+02:00)

ISS - Visible Passes

Search period start: 20 May 2018 00:00
Search period end: 30 May 2018 00:00
Orbit: 402 x 407 km, 51.6° (Epoch: 20 May)

Date Brightness Start Highest point End Pass type
(mag) Time Alt. Az. Time Alt. Az. Time Alt. Az.
20 May -2.2 00:06:25 25° ENE 00:06:25 25° ENE 00:07:56 10° ENE visible
20 May -2.8 01:38:57 16° WNW 01:41:19 46° N 01:44:30 10° ENE visible
20 May -3.6 03:14:48 10° WNW 03:18:04 72° NNE 03:21:19 10° ESE visible
20 May -1.8 21:35:23 10° SSE 21:36:35 12° SE 21:37:45 10° ESE visible
20 May -3.9 23:09:16 10° SW 23:12:29 58° SSE 23:15:43 10° ENE visible
21 May -3.0 00:45:50 10° W 00:49:03 51° N 00:52:15 10° ENE visible
21 May -3.2 02:22:36 10° WNW 02:25:50 56° NNE 02:29:03 10° E visible
21 May -3.6 03:59:09 10° WNW 04:02:17 45° SSW 04:05:26 10° SE visible
21 May -3.3 22:17:20 10° SW 22:20:22 36° SSE 22:23:25 10° ENE visible
21 May -3.4 23:53:31 10° W 23:56:46 62° NNW 00:00:01 10° ENE visible
22 May -2.9 01:30:21 10° WNW 01:33:33 48° N 01:36:44 10° E visible
22 May -4.0 03:06:53 10° WNW 03:10:10 71° SSW 03:13:25 10° ESE visible
22 May -2.6 21:25:40 10° SSW 21:28:19 23° SE 21:30:58 10° E visible
22 May -3.8 23:01:15 10° WSW 23:04:32 82° NNW 23:07:48 10° ENE visible
23 May -2.8 00:38:03 10° WNW 00:41:14 46° N 00:44:25 10° ENE visible
23 May -3.8 02:14:40 10° WNW 02:17:57 80° NNE 02:21:13 10° ESE visible
23 May -2.7 03:51:30 10° W 03:54:10 24° SW 03:56:51 10° SSE visible
23 May -3.9 22:09:03 10° WSW 22:12:19 69° SSE 22:15:34 10° ENE visible
23 May -2.9 23:45:43 10° W 23:48:55 49° N 23:52:06 10° ENE visible
24 May -3.4 01:22:26 10° WNW 01:25:41 60° NNE 01:27:49 19° E visible
24 May -2.1 02:59:02 10° WNW 03:00:12 19° W 03:00:12 19° W visible
24 May -3.2 22:53:21 10° W 22:56:35 57° NNW 22:59:49 10° ENE visible
25 May -3.0 00:30:10 10° WNW 00:33:22 50° N 00:35:35 18° E visible
25 May -2.2 02:06:42 10° WNW 02:08:09 24° W 02:08:09 24° W visible
25 May -3.6 22:01:01 10° WSW 22:04:17 74° NNW 22:07:34 10° ENE visible
25 May -2.8 23:37:50 10° WNW 23:41:02 46° N 23:44:12 10° ENE visible
26 May -3.4 01:14:25 10° WNW 01:17:03 54° WNW 01:17:03 54° WNW visible
26 May -2.8 22:45:29 10° W 22:48:40 47° N 22:51:51 10° ENE visible
27 May -3.5 00:22:09 10° WNW 00:25:25 66° NNE 00:26:10 46° ENE visible
27 May -3.0 21:53:04 10° W 21:56:18 53° N 21:59:31 10° ENE visible
27 May -3.1 23:29:51 10° WNW 23:33:05 53° N 23:35:24 17° E visible
28 May -2.2 01:06:24 10° WNW 01:08:01 25° W 01:08:01 25° W visible
28 May -2.8 22:37:31 10° WNW 22:40:42 47° N 22:43:53 10° E visible
29 May -4.0 00:14:04 10° WNW 00:17:18 79° SW 00:17:18 79° SW visible
29 May -2.8 21:45:07 10° WNW 21:48:18 46° N 21:51:29 10° ENE visible
29 May -3.7 23:21:46 10° WNW 23:25:02 73° NNE 23:26:37 28° E visible
